Year,Month,Day,Hour,Minute,Value (Times are PST for windgust in km/hr)
2010,11,30,00,00,27.40
2010,11,30,00,01,16.10
2010,11,30,00,02,27.40
2010,11,30,00,03,32.20
2010,11,30,00,04,24.20
2010,11,30,00,05,33.80
2010,11,30,00,06,22.50
2010,11,30,00,07,33.80
2010,11,30,00,08,27.40
2010,11,30,00,09,24.20
2010,11,30,00,10,20.90
2010,11,30,00,11,19.30
2010,11,30,00,12,30.60
2010,11,30,00,13,20.90
2010,11,30,00,14,16.10
2010,11,30,00,15,14.50
2010,11,30,00,16,24.20
2010,11,30,00,17,20.90
2010,11,30,00,18,24.20
2010,11,30,00,19,22.50
2010,11,30,00,20,32.20
2010,11,30,00,21,27.40
2010,11,30,00,22,14.50
2010,11,30,00,23,30.60
2010,11,30,00,24,19.30
2010,11,30,00,25,16.10
2010,11,30,00,26,19.30
2010,11,30,00,27,29.00
2010,11,30,00,28,25.70
2010,11,30,00,29,17.70
2010,11,30,00,30,17.70
2010,11,30,00,31,17.70
2010,11,30,00,32,27.40
2010,11,30,00,33,29.00
2010,11,30,00,34,11.30
2010,11,30,00,35,14.50
2010,11,30,00,36,9.60
2010,11,30,00,37,17.70
2010,11,30,00,38,14.50
2010,11,30,00,39,19.30
2010,11,30,00,40,9.60
2010,11,30,00,41,12.90
2010,11,30,00,42,9.60
2010,11,30,00,43,9.60
2010,11,30,00,44,3.20
2010,11,30,00,45,11.30
2010,11,30,00,46,29.00
2010,11,30,00,47,20.90
2010,11,30,00,48,8.10
2010,11,30,00,49,9.60
2010,11,30,00,50,8.10
2010,11,30,00,51,6.40
2010,11,30,00,52,11.30
2010,11,30,00,53,11.30
2010,11,30,00,54,16.10
2010,11,30,00,55,12.90
2010,11,30,00,56,20.90
2010,11,30,00,57,22.50
2010,11,30,00,58,29.00
2010,11,30,00,59,11.30
2010,11,30,01,00,16.10
2010,11,30,01,01,32.20
2010,11,30,01,02,14.50
2010,11,30,01,03,8.10
2010,11,30,01,04,11.30
2010,11,30,01,05,8.10
2010,11,30,01,06,3.20
2010,11,30,01,07,12.90
2010,11,30,01,08,12.90
2010,11,30,01,09,9.60
2010,11,30,01,10,9.60
2010,11,30,01,11,11.30
2010,11,30,01,12,19.30
2010,11,30,01,13,12.90
2010,11,30,01,14,9.60
2010,11,30,01,15,9.60
2010,11,30,01,16,9.60
2010,11,30,01,17,22.50
2010,11,30,01,18,16.10
2010,11,30,01,19,29.00
2010,11,30,01,20,17.70
2010,11,30,01,21,11.30
2010,11,30,01,22,14.50
2010,11,30,01,23,19.30
2010,11,30,01,24,19.30
2010,11,30,01,25,20.90
2010,11,30,01,26,16.10
2010,11,30,01,27,12.90
2010,11,30,01,28,22.50
2010,11,30,01,29,14.50
2010,11,30,01,30,16.10
2010,11,30,01,31,12.90
2010,11,30,01,32,19.30
2010,11,30,01,33,19.30
2010,11,30,01,34,20.90
2010,11,30,01,35,16.10
2010,11,30,01,36,22.50
2010,11,30,01,37,32.20
2010,11,30,01,38,25.70
2010,11,30,01,39,16.10
2010,11,30,01,40,16.10
2010,11,30,01,41,16.10
2010,11,30,01,42,11.30
2010,11,30,01,43,19.30
2010,11,30,01,44,17.70
2010,11,30,01,45,8.10
2010,11,30,01,46,12.90
2010,11,30,01,47,30.60
2010,11,30,01,48,19.30
2010,11,30,01,49,24.20
2010,11,30,01,50,17.70
2010,11,30,01,51,16.10
2010,11,30,01,52,12.90
2010,11,30,01,53,12.90
2010,11,30,01,54,16.10
2010,11,30,01,55,12.90
2010,11,30,01,56,12.90
2010,11,30,01,57,17.70
2010,11,30,01,58,19.30
2010,11,30,01,59,24.20
2010,11,30,02,00,29.00
2010,11,30,02,01,14.50
2010,11,30,02,02,20.90
2010,11,30,02,03,11.30
2010,11,30,02,04,12.90
2010,11,30,02,05,19.30
2010,11,30,02,06,11.30
2010,11,30,02,07,8.10
2010,11,30,02,08,9.60
2010,11,30,02,09,12.90
2010,11,30,02,10,20.90
2010,11,30,02,11,8.10
2010,11,30,02,12,19.30
2010,11,30,02,13,12.90
2010,11,30,02,14,11.30
2010,11,30,02,15,16.10
2010,11,30,02,16,11.30
2010,11,30,02,17,20.90
2010,11,30,02,18,11.30
2010,11,30,02,19,20.90
2010,11,30,02,20,19.30
2010,11,30,02,21,14.50
2010,11,30,02,22,14.50
2010,11,30,02,23,19.30
2010,11,30,02,24,11.30
2010,11,30,02,25,16.10
2010,11,30,02,26,12.90
2010,11,30,02,27,12.90
2010,11,30,02,28,20.90
2010,11,30,02,29,11.30
2010,11,30,02,30,12.90
2010,11,30,02,31,14.50
2010,11,30,02,32,11.30
2010,11,30,02,33,17.70
2010,11,30,02,34,11.30
2010,11,30,02,35,19.30
2010,11,30,02,36,16.10
2010,11,30,02,37,14.50
2010,11,30,02,38,11.30
2010,11,30,02,39,11.30
2010,11,30,02,40,9.60
2010,11,30,02,41,12.90
2010,11,30,02,42,19.30
2010,11,30,02,43,11.30
2010,11,30,02,44,12.90
2010,11,30,02,45,11.30
2010,11,30,02,46,11.30
2010,11,30,02,47,11.30
2010,11,30,02,48,9.60
2010,11,30,02,49,6.40
2010,11,30,02,50,6.40
2010,11,30,02,51,11.30
2010,11,30,02,52,8.10
2010,11,30,02,53,8.10
2010,11,30,02,54,20.90
2010,11,30,02,55,6.40
2010,11,30,02,56,6.40
2010,11,30,02,57,8.10
2010,11,30,02,58,8.10
2010,11,30,02,59,8.10
2010,11,30,03,00,4.80
2010,11,30,03,01,19.30
2010,11,30,03,02,8.10
2010,11,30,03,03,9.60
2010,11,30,03,04,12.90
2010,11,30,03,05,8.10
2010,11,30,03,06,11.30
2010,11,30,03,07,11.30
2010,11,30,03,08,11.30
2010,11,30,03,09,12.90
2010,11,30,03,10,8.10
2010,11,30,03,11,8.10
2010,11,30,03,12,9.60
2010,11,30,03,13,6.40
2010,11,30,03,14,16.10
2010,11,30,03,15,11.30
2010,11,30,03,16,12.90
2010,11,30,03,17,8.10
2010,11,30,03,18,8.10
2010,11,30,03,19,8.10
2010,11,30,03,20,6.40
2010,11,30,03,21,6.40
2010,11,30,03,22,8.10
2010,11,30,03,23,14.50
2010,11,30,03,24,14.50
2010,11,30,03,25,9.60
2010,11,30,03,26,20.90
2010,11,30,03,27,11.30
2010,11,30,03,28,11.30
2010,11,30,03,29,16.10
2010,11,30,03,30,11.30
2010,11,30,03,31,9.60
2010,11,30,03,32,8.10
2010,11,30,03,33,9.60
2010,11,30,03,34,9.60
2010,11,30,03,35,12.90
2010,11,30,03,36,11.30
2010,11,30,03,37,20.90
2010,11,30,03,38,9.60
2010,11,30,03,39,8.10
2010,11,30,03,40,8.10
2010,11,30,03,41,14.50
2010,11,30,03,42,11.30
2010,11,30,03,43,12.90
2010,11,30,03,44,12.90
2010,11,30,03,45,11.30
2010,11,30,03,46,8.10
2010,11,30,03,47,9.60
2010,11,30,03,48,6.40
2010,11,30,03,49,8.10
2010,11,30,03,50,11.30
2010,11,30,03,51,9.60
2010,11,30,03,52,11.30
2010,11,30,03,53,9.60
2010,11,30,03,54,8.10
2010,11,30,03,55,9.60
2010,11,30,03,56,9.60
2010,11,30,03,57,6.40
2010,11,30,03,58,12.90
2010,11,30,03,59,16.10
2010,11,30,04,00,14.50
2010,11,30,04,01,9.60
2010,11,30,04,02,9.60
2010,11,30,04,03,14.50
2010,11,30,04,04,22.50
2010,11,30,04,05,17.70
2010,11,30,04,06,9.60
2010,11,30,04,07,12.90
2010,11,30,04,08,9.60
2010,11,30,04,09,8.10
2010,11,30,04,10,11.30
2010,11,30,04,11,9.60
2010,11,30,04,12,9.60
2010,11,30,04,13,11.30
2010,11,30,04,14,6.40
2010,11,30,04,15,9.60
2010,11,30,04,16,17.70
2010,11,30,04,17,14.50
2010,11,30,04,18,9.60
2010,11,30,04,19,9.60
2010,11,30,04,20,11.30
2010,11,30,04,21,9.60
2010,11,30,04,22,12.90
2010,11,30,04,23,9.60
2010,11,30,04,24,14.50
2010,11,30,04,25,8.10
2010,11,30,04,26,3.20
2010,11,30,04,27,6.40
2010,11,30,04,28,3.20
2010,11,30,04,29,3.20
2010,11,30,04,30,3.20
2010,11,30,04,31,6.40
2010,11,30,04,32,6.40
2010,11,30,04,33,8.10
2010,11,30,04,34,6.40
2010,11,30,04,35,6.40
2010,11,30,04,36,8.10
2010,11,30,04,37,8.10
2010,11,30,04,38,6.40
2010,11,30,04,39,6.40
2010,11,30,04,40,8.10
2010,11,30,04,41,6.40
2010,11,30,04,42,11.30
2010,11,30,04,43,4.80
2010,11,30,04,44,17.70
2010,11,30,04,45,16.10
2010,11,30,04,46,12.90
2010,11,30,04,47,19.30
2010,11,30,04,48,6.40
2010,11,30,04,49,9.60
2010,11,30,04,50,11.30
2010,11,30,04,51,12.90
2010,11,30,04,52,17.70
2010,11,30,04,53,9.60
2010,11,30,04,54,20.90
2010,11,30,04,55,8.10
2010,11,30,04,56,9.60
2010,11,30,04,57,14.50
2010,11,30,04,58,14.50
2010,11,30,04,59,8.10
2010,11,30,05,00,9.60
2010,11,30,05,01,11.30
2010,11,30,05,02,11.30
2010,11,30,05,03,8.10
2010,11,30,05,04,8.10
2010,11,30,05,05,8.10
2010,11,30,05,06,6.40
2010,11,30,05,07,20.90
2010,11,30,05,08,17.70
2010,11,30,05,09,29.00
2010,11,30,05,10,14.50
2010,11,30,05,11,8.10
2010,11,30,05,12,12.90
2010,11,30,05,13,9.60
2010,11,30,05,14,11.30
2010,11,30,05,15,11.30
2010,11,30,05,16,9.60
2010,11,30,05,17,22.50
2010,11,30,05,18,12.90
2010,11,30,05,19,11.30
2010,11,30,05,20,8.10
2010,11,30,05,21,11.30
2010,11,30,05,22,14.50
2010,11,30,05,23,17.70
2010,11,30,05,24,11.30
2010,11,30,05,25,11.30
2010,11,30,05,26,14.50
2010,11,30,05,27,14.50
2010,11,30,05,28,16.10
2010,11,30,05,29,14.50
2010,11,30,05,30,14.50
2010,11,30,05,31,12.90
2010,11,30,05,32,11.30
2010,11,30,05,33,8.10
2010,11,30,05,34,8.10
2010,11,30,05,35,9.60
2010,11,30,05,36,8.10
2010,11,30,05,37,9.60
2010,11,30,05,38,9.60
2010,11,30,05,39,17.70
2010,11,30,05,40,11.30
2010,11,30,05,41,11.30
2010,11,30,05,42,9.60
2010,11,30,05,43,11.30
2010,11,30,05,44,9.60
2010,11,30,05,45,9.60
2010,11,30,05,46,14.50
2010,11,30,05,47,8.10
2010,11,30,05,48,9.60
2010,11,30,05,49,9.60
2010,11,30,05,50,11.30
2010,11,30,05,51,11.30
2010,11,30,05,52,12.90
2010,11,30,05,53,8.10
2010,11,30,05,54,9.60
2010,11,30,05,55,9.60
2010,11,30,05,56,8.10
2010,11,30,05,57,6.40
2010,11,30,05,58,9.60
2010,11,30,05,59,9.60
2010,11,30,06,00,8.10
2010,11,30,06,01,20.90
2010,11,30,06,02,11.30
2010,11,30,06,03,6.40
2010,11,30,06,04,3.20
2010,11,30,06,05,9.60
2010,11,30,06,06,22.50
2010,11,30,06,07,12.90
2010,11,30,06,08,6.40
2010,11,30,06,09,3.20
2010,11,30,06,10,9.60
2010,11,30,06,11,17.70
2010,11,30,06,12,20.90
2010,11,30,06,13,17.70
2010,11,30,06,14,19.30
2010,11,30,06,15,20.90
2010,11,30,06,16,9.60
2010,11,30,06,17,9.60
2010,11,30,06,18,12.90
2010,11,30,06,19,14.50
2010,11,30,06,20,9.60
2010,11,30,06,21,9.60
2010,11,30,06,22,9.60
2010,11,30,06,23,14.50
2010,11,30,06,24,6.40
2010,11,30,06,25,9.60
2010,11,30,06,26,6.40
2010,11,30,06,27,8.10
2010,11,30,06,28,25.70
2010,11,30,06,29,9.60
2010,11,30,06,30,19.30
2010,11,30,06,31,12.90
2010,11,30,06,32,11.30
2010,11,30,06,33,11.30
2010,11,30,06,34,12.90
2010,11,30,06,35,14.50
2010,11,30,06,36,11.30
2010,11,30,06,37,8.10
2010,11,30,06,38,9.60
2010,11,30,06,39,6.40
2010,11,30,06,40,11.30
2010,11,30,06,41,11.30
2010,11,30,06,42,14.50
2010,11,30,06,43,14.50
2010,11,30,06,44,8.10
2010,11,30,06,45,9.60
2010,11,30,06,46,11.30
2010,11,30,06,47,9.60
2010,11,30,06,48,12.90
2010,11,30,06,49,9.60
2010,11,30,06,50,9.60
2010,11,30,06,51,11.30
2010,11,30,06,52,11.30
2010,11,30,06,53,9.60
2010,11,30,06,54,9.60
2010,11,30,06,55,11.30
2010,11,30,06,56,11.30
2010,11,30,06,57,9.60
2010,11,30,06,58,12.90
2010,11,30,06,59,19.30
2010,11,30,07,00,17.70
2010,11,30,07,01,8.10
2010,11,30,07,02,12.90
2010,11,30,07,03,9.60
2010,11,30,07,04,8.10
2010,11,30,07,05,8.10
2010,11,30,07,06,9.60
2010,11,30,07,07,12.90
2010,11,30,07,08,11.30
2010,11,30,07,09,8.10
2010,11,30,07,10,12.90
2010,11,30,07,11,8.10
2010,11,30,07,12,9.60
2010,11,30,07,13,12.90
2010,11,30,07,14,9.60
2010,11,30,07,15,6.40
2010,11,30,07,16,17.70
2010,11,30,07,17,3.20
2010,11,30,07,18,6.40
2010,11,30,07,19,8.10
2010,11,30,07,20,9.60
2010,11,30,07,21,20.90
2010,11,30,07,22,16.10
2010,11,30,07,23,9.60
2010,11,30,07,24,8.10
2010,11,30,07,25,9.60
2010,11,30,07,26,8.10
2010,11,30,07,27,8.10
2010,11,30,07,28,8.10
2010,11,30,07,29,8.10
2010,11,30,07,30,11.30
2010,11,30,07,31,11.30
2010,11,30,07,32,8.10
2010,11,30,07,33,12.90
2010,11,30,07,34,17.70
2010,11,30,07,35,19.30
2010,11,30,07,36,11.30
2010,11,30,07,37,20.90
2010,11,30,07,38,9.60
2010,11,30,07,39,8.10
2010,11,30,07,40,11.30
2010,11,30,07,41,9.60
2010,11,30,07,42,12.90
2010,11,30,07,43,12.90
2010,11,30,07,44,12.90
2010,11,30,07,45,9.60
2010,11,30,07,46,9.60
2010,11,30,07,47,9.60
2010,11,30,07,48,14.50
2010,11,30,07,49,8.10
2010,11,30,07,50,9.60
2010,11,30,07,51,16.10
2010,11,30,07,52,17.70
2010,11,30,07,53,12.90
2010,11,30,07,54,8.10
2010,11,30,07,55,6.40
2010,11,30,07,56,9.60
2010,11,30,07,57,14.50
2010,11,30,07,58,8.10
2010,11,30,07,59,8.10
2010,11,30,08,00,6.40
2010,11,30,08,01,9.60
2010,11,30,08,02,9.60
2010,11,30,08,03,9.60
2010,11,30,08,04,9.60
2010,11,30,08,05,6.40
2010,11,30,08,06,8.10
2010,11,30,08,07,9.60
2010,11,30,08,08,12.90
2010,11,30,08,09,11.30
2010,11,30,08,10,12.90
2010,11,30,08,11,6.40
2010,11,30,08,12,9.60
2010,11,30,08,13,8.10
2010,11,30,08,14,19.30
2010,11,30,08,15,14.50
2010,11,30,08,16,11.30
2010,11,30,08,17,9.60
2010,11,30,08,18,9.60
2010,11,30,08,19,9.60
2010,11,30,08,20,8.10
2010,11,30,08,21,17.70
2010,11,30,08,22,8.10
2010,11,30,08,23,11.30
2010,11,30,08,24,8.10
2010,11,30,08,25,22.50
2010,11,30,08,26,8.10
2010,11,30,08,27,20.90
2010,11,30,08,28,17.70
2010,11,30,08,29,14.50
2010,11,30,08,30,8.10
2010,11,30,08,31,9.60
2010,11,30,08,32,6.40
2010,11,30,08,33,8.10
2010,11,30,08,34,6.40
2010,11,30,08,35,9.60
2010,11,30,08,36,8.10
2010,11,30,08,37,14.50
2010,11,30,08,38,9.60
2010,11,30,08,39,11.30
2010,11,30,08,40,12.90
2010,11,30,08,41,22.50
2010,11,30,08,42,12.90
2010,11,30,08,43,8.10
2010,11,30,08,44,12.90
2010,11,30,08,45,11.30
2010,11,30,08,46,6.40
2010,11,30,08,47,8.10
2010,11,30,08,48,8.10
2010,11,30,08,49,11.30
2010,11,30,08,50,12.90
2010,11,30,08,51,9.60
2010,11,30,08,52,8.10
2010,11,30,08,53,9.60
2010,11,30,08,54,9.60
2010,11,30,08,55,9.60
2010,11,30,08,56,9.60
2010,11,30,08,57,8.10
2010,11,30,08,58,12.90
2010,11,30,08,59,12.90
2010,11,30,09,00,9.60
2010,11,30,09,01,12.90
2010,11,30,09,02,8.10
2010,11,30,09,03,11.30
2010,11,30,09,04,9.60
2010,11,30,09,05,6.40
2010,11,30,09,06,8.10
2010,11,30,09,07,8.10
2010,11,30,09,08,14.50
2010,11,30,09,09,9.60
2010,11,30,09,10,11.30
2010,11,30,09,11,12.90
2010,11,30,09,12,19.30
2010,11,30,09,13,22.50
2010,11,30,09,14,9.60
2010,11,30,09,15,8.10
2010,11,30,09,16,12.90
2010,11,30,09,17,12.90
2010,11,30,09,18,11.30
2010,11,30,09,19,19.30
2010,11,30,09,20,8.10
2010,11,30,09,21,19.30
2010,11,30,09,22,8.10
2010,11,30,09,23,17.70
2010,11,30,09,24,9.60
2010,11,30,09,25,12.90
2010,11,30,09,26,12.90
2010,11,30,09,27,9.60
2010,11,30,09,28,8.10
2010,11,30,09,29,8.10
2010,11,30,09,30,11.30
2010,11,30,09,31,12.90
2010,11,30,09,32,6.40
2010,11,30,09,33,9.60
2010,11,30,09,34,8.10
2010,11,30,09,35,8.10
2010,11,30,09,36,8.10
2010,11,30,09,37,19.30
2010,11,30,09,38,22.50
2010,11,30,09,39,9.60
2010,11,30,09,40,11.30
2010,11,30,09,41,8.10
2010,11,30,09,42,8.10
2010,11,30,09,43,6.40
2010,11,30,09,44,6.40
2010,11,30,09,45,14.50
2010,11,30,09,46,8.10
2010,11,30,09,47,6.40
2010,11,30,09,48,12.90
2010,11,30,09,49,9.60
2010,11,30,09,50,11.30
2010,11,30,09,51,8.10
2010,11,30,09,52,9.60
2010,11,30,09,53,11.30
2010,11,30,09,54,9.60
2010,11,30,09,55,6.40
2010,11,30,09,56,9.60
2010,11,30,09,57,8.10
2010,11,30,09,58,11.30
2010,11,30,09,59,6.40
2010,11,30,10,00,11.30
2010,11,30,10,01,8.10
2010,11,30,10,02,8.10
2010,11,30,10,03,9.60
2010,11,30,10,04,8.10
2010,11,30,10,05,8.10
2010,11,30,10,06,9.60
2010,11,30,10,07,12.90
2010,11,30,10,08,19.30
2010,11,30,10,09,14.50
2010,11,30,10,10,14.50
2010,11,30,10,11,14.50
2010,11,30,10,12,8.10
2010,11,30,10,13,12.90
2010,11,30,10,14,8.10
2010,11,30,10,15,11.30
2010,11,30,10,16,6.40
2010,11,30,10,17,8.10
2010,11,30,10,18,8.10
2010,11,30,10,19,14.50
2010,11,30,10,20,17.70
2010,11,30,10,21,11.30
2010,11,30,10,22,14.50
2010,11,30,10,23,11.30
2010,11,30,10,24,12.90
2010,11,30,10,25,11.30
2010,11,30,10,26,19.30
2010,11,30,10,27,14.50
2010,11,30,10,28,8.10
2010,11,30,10,29,16.10
2010,11,30,10,30,9.60
2010,11,30,10,31,12.90
2010,11,30,10,32,11.30
2010,11,30,10,33,12.90
2010,11,30,10,34,8.10
2010,11,30,10,35,8.10
2010,11,30,10,36,8.10
2010,11,30,10,37,16.10
2010,11,30,10,38,9.60
2010,11,30,10,39,8.10
2010,11,30,10,40,9.60
2010,11,30,10,41,12.90
2010,11,30,10,42,14.50
2010,11,30,10,43,6.40
2010,11,30,10,44,8.10
2010,11,30,10,45,6.40
2010,11,30,10,46,8.10
2010,11,30,10,47,11.30
2010,11,30,10,48,8.10
2010,11,30,10,49,11.30
2010,11,30,10,50,12.90
2010,11,30,10,51,12.90
2010,11,30,10,52,9.60
2010,11,30,10,53,8.10
2010,11,30,10,54,8.10
2010,11,30,10,55,9.60
2010,11,30,10,56,8.10
2010,11,30,10,57,9.60
2010,11,30,10,58,9.60
2010,11,30,10,59,12.90
2010,11,30,11,00,9.60
2010,11,30,11,01,8.10
2010,11,30,11,02,12.90
2010,11,30,11,03,9.60
2010,11,30,11,04,9.60
2010,11,30,11,05,9.60
2010,11,30,11,06,6.40
2010,11,30,11,07,3.20
2010,11,30,11,08,6.40
2010,11,30,11,09,3.20
2010,11,30,11,10,14.50
2010,11,30,11,11,8.10
2010,11,30,11,12,9.60
2010,11,30,11,13,6.40
2010,11,30,11,14,3.20
2010,11,30,11,15,11.30
2010,11,30,11,16,11.30
2010,11,30,11,17,8.10
2010,11,30,11,18,3.20
2010,11,30,11,19,3.20
2010,11,30,11,20,3.20
2010,11,30,11,21,8.10
2010,11,30,11,22,3.20
2010,11,30,11,23,9.60
2010,11,30,11,24,8.10
2010,11,30,11,25,8.10
2010,11,30,11,26,1.60
2010,11,30,11,27,1.60
2010,11,30,11,28,6.40
2010,11,30,11,29,14.50
2010,11,30,11,30,6.40
2010,11,30,11,31,3.20
2010,11,30,11,32,3.20
2010,11,30,11,33,12.90
2010,11,30,11,34,6.40
2010,11,30,11,35,3.20
2010,11,30,11,36,6.40
2010,11,30,11,37,8.10
2010,11,30,11,38,11.30
2010,11,30,11,39,8.10
2010,11,30,11,40,12.90
2010,11,30,11,41,6.40
2010,11,30,11,42,8.10
2010,11,30,11,43,8.10
2010,11,30,11,44,6.40
2010,11,30,11,45,8.10
2010,11,30,11,46,9.60
2010,11,30,11,47,8.10
2010,11,30,11,48,6.40
2010,11,30,11,49,9.60
2010,11,30,11,50,11.30
2010,11,30,11,51,9.60
2010,11,30,11,52,9.60
2010,11,30,11,53,11.30
2010,11,30,11,54,9.60
2010,11,30,11,55,12.90
2010,11,30,11,56,11.30
2010,11,30,11,57,8.10
2010,11,30,11,58,11.30
2010,11,30,11,59,8.10
2010,11,30,12,00,11.30
2010,11,30,12,01,9.60
2010,11,30,12,02,6.40
2010,11,30,12,03,8.10
2010,11,30,12,04,9.60
2010,11,30,12,05,9.60
2010,11,30,12,06,8.10
2010,11,30,12,07,8.10
2010,11,30,12,08,9.60
2010,11,30,12,09,9.60
2010,11,30,12,10,12.90
2010,11,30,12,11,14.50
2010,11,30,12,12,11.30
2010,11,30,12,13,9.60
2010,11,30,12,14,11.30
2010,11,30,12,15,12.90
2010,11,30,12,16,8.10
2010,11,30,12,17,8.10
2010,11,30,12,18,8.10
2010,11,30,12,19,8.10
2010,11,30,12,20,6.40
2010,11,30,12,21,11.30
2010,11,30,12,22,9.60
2010,11,30,12,23,9.60
2010,11,30,12,24,8.10
2010,11,30,12,25,9.60
2010,11,30,12,26,9.60
2010,11,30,12,27,9.60
2010,11,30,12,28,8.10
2010,11,30,12,29,11.30
2010,11,30,12,30,9.60
2010,11,30,12,31,9.60
2010,11,30,12,32,8.10
2010,11,30,12,33,11.30
2010,11,30,12,34,11.30
2010,11,30,12,35,11.30
2010,11,30,12,36,8.10
2010,11,30,12,37,9.60
2010,11,30,12,38,12.90
2010,11,30,12,39,8.10
2010,11,30,12,40,9.60
2010,11,30,12,41,9.60
2010,11,30,12,42,14.50
2010,11,30,12,43,9.60
2010,11,30,12,44,11.30
2010,11,30,12,45,14.50
2010,11,30,12,46,11.30
2010,11,30,12,47,8.10
2010,11,30,12,48,14.50
2010,11,30,12,49,9.60
2010,11,30,12,50,9.60
2010,11,30,12,51,11.30
2010,11,30,12,52,14.50
2010,11,30,12,53,9.60
2010,11,30,12,54,9.60
2010,11,30,12,55,12.90
2010,11,30,12,56,9.60
2010,11,30,12,57,12.90
2010,11,30,12,58,14.50
2010,11,30,12,59,11.30
2010,11,30,13,00,9.60
2010,11,30,13,01,12.90
2010,11,30,13,02,22.50
2010,11,30,13,03,12.90
2010,11,30,13,04,17.70
2010,11,30,13,05,11.30
2010,11,30,13,06,14.50
2010,11,30,13,07,9.60
2010,11,30,13,08,14.50
2010,11,30,13,09,9.60
2010,11,30,13,10,14.50
2010,11,30,13,11,8.10
2010,11,30,13,12,9.60
2010,11,30,13,13,6.40
2010,11,30,13,14,8.10
2010,11,30,13,15,3.20
2010,11,30,13,16,9.60
2010,11,30,13,17,3.20
2010,11,30,13,18,6.40
2010,11,30,13,19,6.40
2010,11,30,13,20,9.60
2010,11,30,13,21,3.20
2010,11,30,13,22,6.40
2010,11,30,13,23,19.30
2010,11,30,13,24,9.60
2010,11,30,13,25,8.10
2010,11,30,13,26,6.40
2010,11,30,13,27,8.10
2010,11,30,13,28,6.40
2010,11,30,13,29,6.40
2010,11,30,13,30,6.40
2010,11,30,13,31,12.90
2010,11,30,13,32,9.60
2010,11,30,13,33,8.10
2010,11,30,13,34,4.80
2010,11,30,13,35,6.40
2010,11,30,13,36,6.40
2010,11,30,13,37,3.20
2010,11,30,13,39,1.60
2010,11,30,13,40,8.10
2010,11,30,13,41,8.10
2010,11,30,13,42,8.10
2010,11,30,13,43,8.10
2010,11,30,13,44,8.10
2010,11,30,13,45,3.20
2010,11,30,13,46,6.40
2010,11,30,13,47,9.60
2010,11,30,13,48,6.40
2010,11,30,13,49,8.10
2010,11,30,13,50,3.20
2010,11,30,13,51,9.60
2010,11,30,13,52,8.10
2010,11,30,13,53,3.20
2010,11,30,13,54,6.40
2010,11,30,13,55,3.20
2010,11,30,13,56,6.40
2010,11,30,13,57,8.10
2010,11,30,13,58,6.40
2010,11,30,13,59,3.20
2010,11,30,14,00,8.10
2010,11,30,14,01,6.40
2010,11,30,14,02,6.40
2010,11,30,14,03,8.10
2010,11,30,14,04,8.10
2010,11,30,14,05,9.60
2010,11,30,14,06,4.80
2010,11,30,14,07,6.40
2010,11,30,14,08,6.40
2010,11,30,14,09,6.40
2010,11,30,14,10,3.20
2010,11,30,14,11,8.10
2010,11,30,14,12,8.10
2010,11,30,14,13,8.10
2010,11,30,14,14,3.20
2010,11,30,14,15,12.90
2010,11,30,14,16,9.60
2010,11,30,14,17,8.10
2010,11,30,14,18,3.20
2010,11,30,14,19,6.40
2010,11,30,14,20,1.60
2010,11,30,14,21,3.20
2010,11,30,14,22,8.10
2010,11,30,14,23,8.10
2010,11,30,14,24,4.80
2010,11,30,14,25,6.40
2010,11,30,14,26,12.90
2010,11,30,14,27,6.40
2010,11,30,14,28,8.10
2010,11,30,14,29,6.40
2010,11,30,14,30,6.40
2010,11,30,14,31,3.20
2010,11,30,14,32,8.10
2010,11,30,14,33,6.40
2010,11,30,14,34,1.60
2010,11,30,14,35,1.60
2010,11,30,14,36,4.80
2010,11,30,14,37,3.20
2010,11,30,14,38,11.30
2010,11,30,14,39,1.60
2010,11,30,14,40,6.40
2010,11,30,14,41,6.40
2010,11,30,14,42,3.20
2010,11,30,14,43,6.40
2010,11,30,14,44,6.40
2010,11,30,14,45,3.20
2010,11,30,14,46,3.20
2010,11,30,14,47,3.20
2010,11,30,14,48,8.10
2010,11,30,14,49,6.40
2010,11,30,14,50,3.20
2010,11,30,14,51,6.40
2010,11,30,14,52,8.10
2010,11,30,14,53,6.40
2010,11,30,14,54,8.10
2010,11,30,14,55,3.20
2010,11,30,14,56,3.20
2010,11,30,14,57,16.10
2010,11,30,14,58,19.30
2010,11,30,14,59,11.30
2010,11,30,15,00,11.30
2010,11,30,15,01,9.60
2010,11,30,15,02,6.40
2010,11,30,15,03,6.40
2010,11,30,15,04,8.10
2010,11,30,15,05,8.10
2010,11,30,15,06,9.60
2010,11,30,15,07,6.40
2010,11,30,15,08,3.20
2010,11,30,15,09,3.20
2010,11,30,15,10,6.40
2010,11,30,15,11,9.60
2010,11,30,15,12,8.10
2010,11,30,15,13,3.20
2010,11,30,15,14,6.40
2010,11,30,15,15,9.60
2010,11,30,15,16,3.20
2010,11,30,15,17,4.80
2010,11,30,15,18,8.10
2010,11,30,15,19,8.10
2010,11,30,15,20,9.60
2010,11,30,15,21,1.60
2010,11,30,15,22,6.40
2010,11,30,15,23,3.20
2010,11,30,15,24,8.10
2010,11,30,15,25,11.30
2010,11,30,15,26,6.40
2010,11,30,15,27,3.20
2010,11,30,15,28,11.30
2010,11,30,15,29,6.40
2010,11,30,15,30,8.10
2010,11,30,15,31,11.30
2010,11,30,15,32,6.40
2010,11,30,15,33,1.60
2010,11,30,15,34,6.40
2010,11,30,15,35,1.60
2010,11,30,15,37,6.40
2010,11,30,15,38,1.60
2010,11,30,15,39,1.60
2010,11,30,15,40,1.60
2010,11,30,15,41,8.10
2010,11,30,15,42,8.10
2010,11,30,15,43,6.40
2010,11,30,15,44,6.40
2010,11,30,15,45,8.10
2010,11,30,15,46,6.40
2010,11,30,15,47,6.40
2010,11,30,15,48,1.60
2010,11,30,15,49,1.60
2010,11,30,15,50,3.20
2010,11,30,15,53,1.60
2010,11,30,15,54,9.60
2010,11,30,15,55,8.10
2010,11,30,15,56,6.40
2010,11,30,15,57,11.30
2010,11,30,15,58,1.60
2010,11,30,15,59,3.20
2010,11,30,16,00,8.10
2010,11,30,16,01,1.60
2010,11,30,16,02,3.20
2010,11,30,16,04,3.20
2010,11,30,16,05,1.60
2010,11,30,16,06,11.30
2010,11,30,16,07,6.40
2010,11,30,16,08,3.20
2010,11,30,16,09,6.40
2010,11,30,16,10,3.20
2010,11,30,16,11,6.40
2010,11,30,16,12,1.60
2010,11,30,16,13,1.60
2010,11,30,16,14,6.40
2010,11,30,16,15,3.20
2010,11,30,16,16,3.20
2010,11,30,16,17,3.20
2010,11,30,16,18,6.40
2010,11,30,16,19,1.60
2010,11,30,16,20,1.60
2010,11,30,16,21,3.20
2010,11,30,16,22,6.40
2010,11,30,16,23,4.80
2010,11,30,16,24,1.60
2010,11,30,16,25,3.20
2010,11,30,16,26,1.60
2010,11,30,16,27,6.40
2010,11,30,16,28,6.40
2010,11,30,16,29,3.20
2010,11,30,16,30,3.20
2010,11,30,16,32,8.10
2010,11,30,16,33,9.60
2010,11,30,16,34,8.10
2010,11,30,16,35,4.80
2010,11,30,16,36,4.80
2010,11,30,16,37,1.60
2010,11,30,16,38,3.20
2010,11,30,16,39,3.20
2010,11,30,16,40,6.40
2010,11,30,16,41,3.20
2010,11,30,16,42,6.40
2010,11,30,16,43,3.20
2010,11,30,16,44,1.60
2010,11,30,16,45,9.60
2010,11,30,16,46,8.10
2010,11,30,16,48,1.60
2010,11,30,16,49,1.60
2010,11,30,16,54,3.20
2010,11,30,16,55,3.20
2010,11,30,16,56,6.40
2010,11,30,16,57,4.80
2010,11,30,16,58,4.80
2010,11,30,16,59,6.40
2010,11,30,17,00,6.40
2010,11,30,17,01,1.60
2010,11,30,17,02,1.60
2010,11,30,17,04,3.20
2010,11,30,17,05,4.80
2010,11,30,17,06,3.20
2010,11,30,17,07,1.60
2010,11,30,17,09,3.20
2010,11,30,17,11,1.60
2010,11,30,17,12,3.20
2010,11,30,17,13,1.60
2010,11,30,17,14,3.20
2010,11,30,17,15,1.60
2010,11,30,17,16,3.20
2010,11,30,17,17,3.20
2010,11,30,17,18,3.20
2010,11,30,17,23,1.60
2010,11,30,17,24,1.60
2010,11,30,17,25,1.60
2010,11,30,17,26,3.20
2010,11,30,17,27,3.20
2010,11,30,17,28,3.20
2010,11,30,17,30,1.60
2010,11,30,17,31,1.60
2010,11,30,17,38,1.60
2010,11,30,17,43,1.60
2010,11,30,18,03,1.60
2010,11,30,18,05,1.60
2010,11,30,18,06,3.20
2010,11,30,18,07,3.20
2010,11,30,18,10,1.60
2010,11,30,18,11,1.60
2010,11,30,18,12,4.80
2010,11,30,18,13,4.80
2010,11,30,18,14,1.60
2010,11,30,18,15,1.60
2010,11,30,18,16,1.60
2010,11,30,18,17,1.60
2010,11,30,18,18,3.20
2010,11,30,18,19,1.60
2010,11,30,18,21,3.20
2010,11,30,18,22,3.20
2010,11,30,18,23,3.20
2010,11,30,18,24,3.20
2010,11,30,18,25,3.20
2010,11,30,18,26,3.20
2010,11,30,18,27,3.20
2010,11,30,18,28,3.20
2010,11,30,18,29,1.60
2010,11,30,18,30,1.60
2010,11,30,18,33,1.60
2010,11,30,18,34,1.60
2010,11,30,18,35,3.20
2010,11,30,18,37,1.60
2010,11,30,18,38,1.60
2010,11,30,18,39,3.20
2010,11,30,18,40,1.60
2010,11,30,18,41,3.20
2010,11,30,18,43,3.20